TimeMDT,TemperatureF,Dew PointF,Humidity,Sea Level PressureIn,VisibilityMPH,Wind Direction,Wind SpeedMPH,Gust SpeedMPH,PrecipitationIn,Events,Conditions,WindDirDegrees,DateUTC
12:15 AM,76.3,23.5,14,29.96,10.0,NNW,16.1,-,N/A,,Clear,330,2013-06-12 06:15:00
12:35 AM,73.9,22.1,14,29.97,10.0,NW,23.0,27.6,N/A,,Clear,320,2013-06-12 06:35:00
12:55 AM,76.3,20.3,12,29.98,10.0,NW,19.6,26.5,N/A,,Clear,320,2013-06-12 06:55:00
1:15 AM,77.9,18.9,11,29.99,10.0,NW,25.3,34.5,N/A,,Clear,320,2013-06-12 07:15:00
1:35 AM,75.4,19.4,12,29.99,10.0,NNW,19.6,25.3,N/A,,Clear,330,2013-06-12 07:35:00
1:55 AM,72.9,20.1,14,30.00,10.0,NNW,19.6,24.2,N/A,,Clear,330,2013-06-12 07:55:00
2:15 AM,72.5,20.3,14,30.00,10.0,NNW,15.0,-,N/A,,Clear,330,2013-06-12 08:15:00
2:35 AM,72.5,20.7,14,30.02,10.0,NNW,13.8,-,N/A,,Clear,330,2013-06-12 08:35:00
2:55 AM,73.2,21.0,14,30.02,10.0,NNW,19.6,24.2,N/A,,Clear,330,2013-06-12 08:55:00
3:15 AM,72.9,21.2,14,30.02,10.0,NW,16.1,-,N/A,,Clear,320,2013-06-12 09:15:00
3:35 AM,70.3,22.3,16,30.03,10.0,NNW,16.1,-,N/A,,Clear,330,2013-06-12 09:35:00
3:55 AM,70.0,23.5,17,30.04,10.0,NNW,17.3,-,N/A,,Clear,330,2013-06-12 09:55:00
4:15 AM,71.8,24.6,17,30.05,10.0,NW,18.4,-,N/A,,Clear,320,2013-06-12 10:15:00
4:35 AM,71.6,25.7,18,30.06,10.0,NW,16.1,-,N/A,,Clear,310,2013-06-12 10:35:00
4:55 AM,71.2,26.6,19,30.07,10.0,NW,16.1,-,N/A,,Clear,320,2013-06-12 10:55:00
5:15 AM,70.3,26.4,19,30.08,10.0,NW,13.8,-,N/A,,Clear,320,2013-06-12 11:15:00
5:35 AM,67.1,27.5,23,30.09,10.0,NNW,12.7,-,N/A,,Clear,330,2013-06-12 11:35:00
5:55 AM,68.9,28.9,23,30.11,10.0,North,12.7,-,N/A,,Clear,360,2013-06-12 11:55:00
6:15 AM,65.7,28.8,25,30.11,10.0,NNW,15.0,-,N/A,,Clear,340,2013-06-12 12:15:00
6:35 AM,66.0,29.8,26,30.12,10.0,North,15.0,-,N/A,,Clear,350,2013-06-12 12:35:00
6:55 AM,65.1,31.6,29,30.13,10.0,North,13.8,18.4,N/A,,Clear,350,2013-06-12 12:55:00
7:15 AM,66.4,34.3,31,30.14,10.0,North,15.0,-,N/A,,Clear,10,2013-06-12 13:15:00
7:35 AM,68.4,46.2,45,30.14,10.0,North,13.8,-,N/A,,Clear,10,2013-06-12 13:35:00
7:55 AM,69.6,51.8,53,30.14,10.0,North,12.7,-,N/A,,Clear,360,2013-06-12 13:55:00
8:15 AM,70.7,54.1,56,30.14,10.0,NNE,10.4,-,N/A,,Clear,20,2013-06-12 14:15:00
8:35 AM,71.8,54.0,53,30.15,10.0,NNE,8.1,-,N/A,,Clear,30,2013-06-12 14:35:00
8:55 AM,74.5,54.0,49,30.15,10.0,NNE,8.1,-,N/A,,Clear,20,2013-06-12 14:55:00
9:15 AM,75.2,53.6,47,30.15,10.0,NNE,6.9,-,N/A,,Clear,30,2013-06-12 15:15:00
9:35 AM,77.7,53.4,43,30.14,10.0,NE,6.9,-,N/A,,Clear,40,2013-06-12 15:35:00
9:55 AM,78.3,52.2,40,30.15,10.0,ENE,4.6,-,N/A,,Clear,60,2013-06-12 15:55:00
10:15 AM,78.8,50.9,38,30.14,10.0,North,5.8,-,N/A,,Clear,350,2013-06-12 16:15:00
10:35 AM,80.4,47.7,32,30.14,10.0,Calm,Calm,-,N/A,,Clear,0,2013-06-12 16:35:00
10:55 AM,81.3,45.7,28,30.14,10.0,NE,4.6,-,N/A,,Clear,50,2013-06-12 16:55:00
11:15 AM,83.1,43.0,24,30.13,10.0,East,4.6,-,N/A,,Clear,80,2013-06-12 17:15:00
11:35 AM,82.6,32.2,16,30.13,10.0,North,5.8,-,N/A,,Clear,350,2013-06-12 17:35:00
11:55 AM,-9999,-9999,N/A,30.13,10.0,NE,5.8,-,N/A,,Clear,50,2013-06-12 17:55:00
12:15 PM,-9999,-9999,N/A,30.12,10.0,East,4.6,-,N/A,,Clear,90,2013-06-12 18:15:00
12:35 PM,-9999,-9999,N/A,30.12,10.0,SSE,9.2,-,N/A,,Clear,160,2013-06-12 18:35:00
12:55 PM,-9999,-9999,N/A,30.11,10.0,SSE,6.9,-,N/A,,Clear,150,2013-06-12 18:55:00
1:15 PM,-9999,-9999,N/A,30.11,10.0,ESE,5.8,-,N/A,,Clear,110,2013-06-12 19:15:00
1:35 PM,-9999,-9999,N/A,30.11,10.0,ESE,9.2,-,N/A,,Clear,120,2013-06-12 19:35:00
1:55 PM,-9999,-9999,N/A,30.11,10.0,SE,6.9,-,N/A,,Clear,140,2013-06-12 19:55:00
2:15 PM,-9999,-9999,N/A,30.11,10.0,ESE,6.9,-,N/A,,Clear,120,2013-06-12 20:15:00
2:35 PM,-9999,-9999,N/A,30.09,10.0,ESE,6.9,-,N/A,,Clear,120,2013-06-12 20:35:00
2:55 PM,-9999,-9999,N/A,30.09,10.0,East,6.9,-,N/A,,Clear,90,2013-06-12 20:55:00
3:15 PM,-9999,-9999,N/A,30.08,10.0,East,9.2,-,N/A,,Clear,90,2013-06-12 21:15:00
3:35 PM,-9999,-9999,N/A,30.08,10.0,ESE,10.4,17.3,N/A,,Clear,110,2013-06-12 21:35:00
3:55 PM,-9999,-9999,N/A,30.07,10.0,ESE,8.1,18.4,N/A,,Clear,110,2013-06-12 21:55:00
4:15 PM,-9999,-9999,N/A,30.06,10.0,ESE,10.4,19.6,N/A,,Clear,120,2013-06-12 22:15:00
4:35 PM,-9999,-9999,N/A,30.05,10.0,ESE,12.7,17.3,N/A,,Clear,110,2013-06-12 22:35:00
4:55 PM,-9999,-9999,N/A,30.04,10.0,ESE,11.5,19.6,N/A,,Clear,110,2013-06-12 22:55:00
5:15 PM,-9999,-9999,N/A,30.04,10.0,East,8.1,-,N/A,,Clear,100,2013-06-12 23:15:00
5:35 PM,-9999,-9999,N/A,30.04,10.0,East,16.1,24.2,N/A,,Clear,90,2013-06-12 23:35:00
5:55 PM,-9999,-9999,N/A,30.04,10.0,East,20.7,25.3,N/A,,Clear,90,2013-06-12 23:55:00
6:15 PM,-9999,-9999,N/A,30.04,10.0,East,11.5,21.9,N/A,,Clear,80,2013-06-13 00:15:00
6:35 PM,-9999,-9999,N/A,30.04,10.0,East,16.1,20.7,N/A,,Clear,100,2013-06-13 00:35:00
6:55 PM,-9999,-9999,N/A,30.04,10.0,ESE,9.2,-,N/A,,Clear,120,2013-06-13 00:55:00
7:15 PM,-9999,-9999,N/A,30.04,10.0,ESE,11.5,-,N/A,,Clear,120,2013-06-13 01:15:00
7:35 PM,-9999,-9999,N/A,30.05,10.0,ESE,12.7,-,N/A,,Clear,110,2013-06-13 01:35:00
7:55 PM,-9999,-9999,N/A,30.05,10.0,ENE,24.2,27.6,N/A,,Clear,70,2013-06-13 01:55:00
8:15 PM,77.9,49.6,37,30.06,10.0,ENE,26.5,35.7,N/A,,Clear,70,2013-06-13 02:15:00
8:35 PM,74.7,52.7,46,30.08,10.0,ENE,24.2,32.2,N/A,,Clear,70,2013-06-13 02:35:00
8:55 PM,72.3,53.2,51,30.10,10.0,East,21.9,27.6,N/A,,Clear,80,2013-06-13 02:55:00
9:15 PM,70.9,53.4,54,30.11,10.0,East,19.6,28.8,N/A,,Clear,80,2013-06-13 03:15:00
9:35 PM,68.9,53.2,57,30.12,10.0,East,17.3,25.3,N/A,,Clear,80,2013-06-13 03:35:00
9:55 PM,67.1,52.9,60,30.13,10.0,East,19.6,28.8,N/A,,Clear,80,2013-06-13 03:55:00
10:15 PM,65.8,52.7,62,30.15,10.0,East,18.4,24.2,N/A,,Clear,80,2013-06-13 04:15:00
10:35 PM,64.4,52.0,64,30.15,10.0,ENE,17.3,21.9,N/A,,Clear,70,2013-06-13 04:35:00
10:55 PM,63.0,51.8,67,30.15,10.0,East,19.6,23.0,N/A,,Clear,80,2013-06-13 04:55:00
11:15 PM,62.1,51.3,68,30.15,10.0,East,16.1,23.0,N/A,,Clear,80,2013-06-13 05:15:00
11:35 PM,61.0,51.1,70,30.15,10.0,East,13.8,-,N/A,,Clear,80,2013-06-13 05:35:00
11:55 PM,60.3,50.9,71,30.16,10.0,East,12.7,-,N/A,,Clear,80,2013-06-13 05:55:00